Location: Annerveen
(53.0666°N, 6.7764°E)
Time: 05:27:12
(UTC+00:00)

Daily predictions for brighter satellites

Satellite Brightness Start Highest point End
(mag) Time Altitude Azimuth Time Altitude Azimuth Time Altitude Azimuth
Cosmos 1758 Rocket 4.4 00:03:04 10° NNW 00:06:37 38° WNW 00:06:37 38° WNW
Cosmos 1726 Rocket 4.4 00:07:11 37° E 00:07:14 37° E 00:11:07 10° NNE
Cosmos 1331 Rocket 4.0 00:06:53 60° WSW 00:07:44 74° WNW 00:13:00 10° NNE
ATLAS 2AS CENTAUR R/B 2.6 00:09:45 40° SW 00:12:33 84° NW 00:19:24 10° NE
DELTA 2 DEB (DPAF) 4.3 00:09:08 10° NNE 00:11:57 49° NE 00:11:57 49° NE
IDEFIX/ARIANE 42P 4.3 00:10:59 10° NE 00:14:57 22° E 00:16:41 19° ESE
Meteor 1-20 Rocket 4.5 00:12:18 10° NNW 00:17:31 48° W 00:18:03 46° WSW
Cosmos 1900 4.3 00:17:30 67° WSW 00:18:08 81° NW 00:23:06 10° NE
Meteor 1-5 Rocket 4.0 00:14:38 10° NNW 00:20:02 81° W 00:20:58 62° S
Cosmos 1953 Rocket 3.9 00:17:21 10° N 00:21:46 58° ENE 00:22:18 54° ESE
Cosmos 1980 Rocket 2.3 00:18:26 10° NW 00:23:57 52° WSW 00:24:19 51° SW
Cosmos 1110 Rocket 4.4 00:23:00 44° WSW 00:24:16 54° WNW 00:29:30 10° NNE
USA 234 3.5 00:20:52 10° E 00:27:21 68° N 00:33:51 10° WNW
Cosmos 44 Rocket 4.4 00:29:47 32° ESE 00:30:01 32° ESE 00:34:34 10° ENE
Cosmos 1825 Rocket 3.5 00:28:12 10° NNW 00:32:19 69° WNW 00:32:19 69° WNW
COSMOS 2406 4.4 00:32:29 27° SE 00:33:56 31° ESE 00:38:54 10° NE
Meteor 2-10 4.1 00:29:31 10° NNW 00:34:59 72° W 00:36:02 57° SSW
Cosmos 2369 3.6 00:29:37 10° NW 00:35:19 74° WSW 00:36:38 53° S
Cosmos 1634 Rocket 4.3 00:35:56 36° SSE 00:38:12 56° E 00:44:13 10° NNE
CZ-4C R/B 4.1 00:38:11 10° N 00:40:24 36° NNW 00:40:24 36° NNW
Cosmos 2084 3.3 00:46:23 78° ESE 00:46:23 78° ESE 00:50:25 10° NE
Cosmos 1627 Rocket 4.4 00:40:06 10° NNW 00:46:23 78° W 00:48:29 45° S
Spot 1 4.1 00:42:44 10° NNE 00:46:49 61° ESE 00:47:07 59° SE
Cosmos 2360 Rocket 3.2 00:45:32 10° NNW 00:50:59 45° NE 00:56:25 10° ESE
Cosmos 2333 Rocket 2.5 00:46:30 10° NNW 00:52:10 66° NE 00:57:05 14° SE
Cosmos-2242 3.2 00:52:12 53° SE 00:52:40 57° E 00:56:47 10° NNE
USA 281 3.2 00:51:27 19° SE 00:56:20 83° ENE 01:02:57 10° NNW
Cosmos 1452 Rocket 4.3 00:58:56 32° W 01:00:38 43° NW 01:05:39 10° NNE
Cosmos 2082 Rocket 2.2 00:59:24 48° SSW 01:01:04 82° ESE 01:06:49 10° NNE
Cosmos 1842 4.5 01:02:44 25° E 01:02:50 25° E 01:05:32 10° NE
Cosmos 1833 Rocket 4.0 01:00:04 19° W 01:03:12 33° NW 01:08:15 10° NNE
Cosmos 2098 Rocket 4.3 01:03:15 36° WSW 01:04:49 44° WNW 01:10:10 10° N
Meteor 2-2 Rocket 4.4 01:02:52 39° SSE 01:04:54 67° E 01:10:30 10° NNE
Cosmos 2278 3.9 01:00:14 10° NNW 01:05:58 74° NE 01:11:11 13° SE
Cosmos 2322 Rocket 2.8 01:00:50 10° NNW 01:06:25 57° NE 01:11:59 10° SE
Cosmos 1486 Rocket 4.0 01:01:32 10° NNW 01:06:47 80° ENE 01:09:36 28° SSE
Cosmos 2279 Rocket 4.2 01:03:59 32° SSE 01:06:52 64° E 01:13:03 10° NNE
NPP 4.5 01:02:21 10° NNE 01:07:30 43° E 01:09:57 27° SSE
Resurs 1-4 Rocket 4.3 01:04:15 10° NE 01:07:57 19° E 01:11:37 10° SE
Cosmos 1867 4.0 01:06:15 32° WSW 01:08:38 56° NW 01:14:01 10° NE
Cosmos 2221 4.0 01:07:40 21° SE 01:09:16 28° E 01:12:48 10° NNE
NOSS 3-3 (A) 4.4 01:14:12 33° SSE 01:15:50 42° ESE 01:21:37 10° NE
ACS3 Solar Sail 1.7 01:10:05 10° N 01:16:07 77° WNW 01:18:33 39° SSW
Cosmos 1777 Rocket 4.0 01:12:07 10° NNW 01:17:26 84° ENE 01:20:41 24° SSE
Cosmos 1606 Rocket 4.3 01:18:01 35° W 01:18:38 37° WNW 01:22:46 10° N
Cosmos 2219 Rocket 3.2 01:14:54 10° NNW 01:20:19 46° NE 01:25:45 10° ESE
SL-16 R/B 2.1 01:15:50 10° NW 01:21:31 76° WSW 01:24:53 26° SSE
Cosmos 1437 Rocket 4.3 01:22:27 20° WNW 01:22:27 20° WNW 01:25:02 10° NNW
H-2A R/B 4.4 01:19:14 10° NE 01:22:36 17° E 01:25:59 10° SE
GP-B 3.3 01:18:34 10° N 01:22:50 52° W 01:23:25 48° WSW
CZ-4C R/B 1.7 01:22:06 49° SW 01:23:22 89° SE 01:29:07 10° NE
Cosmos 1271 Rocket 3.9 01:27:38 25° SE 01:28:37 30° E 01:31:42 10° NNE
Meteor 1-14 Rocket 4.3 01:22:57 10° NNW 01:28:45 78° ENE 01:32:37 21° SSE
ATLAS 3B R/B 3.8 01:22:45 10° WNW 01:28:50 26° WSW 01:29:24 26° WSW
SL-4 R/B 3.4 01:31:34 23° SE 01:31:34 23° SE 01:33:14 10° SE
USA 267 4.2 01:25:19 10° ENE 01:31:09 33° SE 01:34:01 23° S
NOSS 3-3 (C) 4.3 01:30:27 31° S 01:32:33 46° ESE 01:38:31 10° NE
Cosmos 2058 Rocket 3.1 01:32:04 49° SW 01:33:05 68° WNW 01:37:30 10° N
Cosmos 2266 Rocket 4.1 01:28:10 10° N 01:34:20 75° ENE 01:39:09 17° SSE
Cosmos 1470 2.3 01:32:29 10° N 01:35:51 78° E 01:36:16 64° SE
Gbstr 26 Del rocket 3.4 01:37:23 36° SSE 01:37:23 36° SSE 01:39:52 10° ESE
Okean 1 4.3 01:37:01 27° WNW 01:37:03 27° WNW 01:40:07 10° N
KORONAS-FOTON 3.2 01:38:28 77° SW 01:38:39 83° W 01:42:02 10° N
Cosmos 909 Rocket 4.1 01:37:58 31° SW 01:41:13 76° NW 01:47:44 10° NE
Cosmos 1536 3.3 01:43:35 10° NNW 01:46:48 36° W 01:46:48 36° W
Cosmos 2333 4.3 01:41:18 10° NNW 01:47:00 81° ENE 01:52:43 10° SE
DMSP B5D2-2 4.2 01:45:23 10° SSE 01:50:28 72° ENE 01:55:40 10° NNW
NOSS 3-4 (A) 3.8 01:45:14 10° NW 01:51:43 81° NE 01:59:26 10° SE
Cosmos 1812 Rocket 4.0 01:49:34 26° SSE 01:51:48 57° E 01:56:04 10° NNE
Meteor 2-6 Rocket 4.3 01:49:05 30° SSW 01:52:07 85° WNW 01:58:05 10° NNE
NOSS 3-4 (C) 3.8 01:45:46 10° NW 01:52:17 81° NE 02:00:00 10° SE
IDEFIX/ARIANE 42P 2.6 01:49:45 10° NNE 01:54:55 70° WNW 01:57:22 31° SW
Envisat 3.8 01:52:35 10° NNE 01:57:28 46° E 02:01:23 15° SSE
Aureole 1 Rocket 3.6 01:54:31 10° NNW 01:58:26 60° ENE 02:03:21 10° SE
Cosmos 2084 Rocket 3.2 01:57:59 10° NW 02:02:11 71° SW 02:06:24 10° SE
Cosmos 1707 3.5 02:03:05 25° WNW 02:03:05 25° WNW 02:05:22 10° NNW
ATLAS 2AS CENTAUR R/B 3.8 01:57:50 10° W 02:04:16 40° NNW 02:10:37 10° NE
Iridium 4 Rocket 3.6 02:03:00 18° S 02:06:29 69° E 02:11:36 10° N
MOZ.5/SAFIR/RUBIN 5/SL-8 3.7 02:05:32 23° S 02:08:23 64° WSW 02:13:01 10° NNW
H-2A R/B 2.3 02:06:26 13° SSE 02:09:32 70° ENE 02:13:07 10° N
Cosmos 1975 2.7 02:06:00 10° NNW 02:09:34 52° W 02:10:35 38° SSW
Cosmos 990 Rocket 3.9 02:04:58 10° NNW 02:10:06 70° WSW 02:15:12 10° SSE
USA 234 3.2 02:03:48 10° ESE 02:10:22 77° SSW 02:16:57 10° WNW
ADEOS II 3.3 02:06:06 10° NNE 02:10:58 37° E 02:15:47 10° SSE
Cosmos 44 Rocket 3.7 02:08:21 26° WSW 02:11:11 62° NW 02:16:22 10° NE
ALOS 3.0 02:11:12 10° NNE 02:15:37 48° E 02:19:30 13° S
MSX 4.1 02:10:47 10° N 02:16:22 54° WNW 02:19:47 23° SW
Cosmos 1763 Rocket 3.6 02:13:16 23° SSW 02:16:38 74° ESE 02:21:56 10° NNE
Cosmos 1238 Rocket 3.6 02:15:05 15° SSE 02:16:59 32° E 02:19:45 10° NNE
COSMOS 2406 3.5 02:14:30 25° SW 02:17:54 61° NW 02:23:39 10° NNE
COSMOS 2428 3.9 02:13:49 10° NNW 02:19:21 46° NE 02:24:49 10° ESE
CZ-2D R/B 2.6 02:14:28 10° NNE 02:19:40 56° ESE 02:24:33 12° S
SL-16 R/B 3.7 02:16:28 10° SE 02:22:22 46° ENE 02:28:18 10° N
ADEOS Rocket 3.6 02:15:05 10° NNE 02:22:36 77° WNW 02:28:49 17° SSW
Cosmos 1898 Rocket 3.9 02:23:02 10° NNW 02:28:12 65° ENE 02:33:19 10° SE
Spot 2 4.3 02:24:32 10° SSE 02:29:22 85° WSW 02:34:23 10° NNW
Cosmos 1354 Rocket 4.2 02:27:29 10° NW 02:32:33 48° WSW 02:37:34 10° S
Cosmos 1937 Rocket 4.3 02:27:34 10° NNW 02:32:43 55° ENE 02:37:47 10° SE
Cosmos 220 Rocket 4.3 02:32:09 24° WSW 02:34:12 46° WNW 02:38:07 10° NNE
FENGYUN 3A 4.1 02:29:26 10° N 02:34:39 48° WNW 02:38:14 20° SW
Cosmos 2360 Rocket 2.5 02:29:39 10° NW 02:35:00 44° WSW 02:40:20 10° S
Cosmos 2333 Rocket 3.1 02:31:20 10° NW 02:36:03 28° WSW 02:38:59 18° SSW
Cosmos 1607 4.3 02:31:28 18° WSW 02:36:05 58° NW 02:42:18 10° NE
Cosmos 1842 4.2 02:35:26 21° W 02:36:13 23° WNW 02:38:53 10° NNW
Alouette 2 Rocket 3.2 02:32:42 10° NNW 02:37:04 83° WSW 02:40:38 10° SSE
USA 305 1.4 02:38:24 39° NW 02:38:47 48° N 02:40:10 10° ENE
EP 1 4.2 02:36:37 10° NW 02:39:11 58° SW 02:41:53 10° SSE
USA 281 4.2 02:38:17 18° SW 02:41:31 26° W 02:46:53 10° NW
Meteor 2-10 Rocket 4.0 02:37:26 10° N 02:42:30 63° ENE 02:47:42 10° SSE
H-2A R/B 4.2 02:41:12 10° NE 02:44:24 22° E 02:47:33 10° SE
Cosmos 540 Rocket 3.4 02:41:19 18° SSW 02:45:08 77° WNW 02:50:20 10° NNE
Cosmos 2082 Rocket 3.6 02:41:13 11° W 02:45:48 28° NW 02:50:43 10° NNE
Cosmos 2221 3.2 02:43:58 20° WSW 02:46:11 35° WNW 02:50:01 10° N
NPP 4.4 02:42:44 10° N 02:47:41 38° WNW 02:51:28 16° WSW
Resurs 1-4 Rocket 2.1 02:43:02 10° NNE 02:48:23 83° WNW 02:53:19 12° SSW
Cosmos 2322 Rocket 2.9 02:45:15 10° NW 02:50:11 32° WSW 02:55:08 10° SSW
Cosmos 468 Rocket 4.2 02:46:37 12° SSW 02:51:27 75° ESE 02:56:45 10° NNE
BREEZE-M DEB (TANK) 3.4 02:50:12 18° WSW 02:52:12 48° S 02:59:25 10° ESE
DNEPR-1 R/B 4.4 02:48:23 10° NW 02:53:29 50° SW 02:59:39 10° SSE
Cosmos 1766 Rocket 3.6 02:51:51 10° NNW 02:56:09 58° W 03:00:22 10° S
ACS3 Solar Sail 3.4 02:53:34 10° N 02:57:40 20° NW 03:01:49 10° W
Cosmos 1833 4.2 02:53:59 14° SSW 02:59:02 89° SE 03:04:46 10° NNE
H-2A R/B 2.0 02:57:24 10° NNE 03:02:33 87° WNW 03:07:47 10° SSW
Cosmos 1271 Rocket 3.8 03:01:02 16° WSW 03:02:53 24° WNW 03:05:47 10° N
Cosmos 2219 Rocket 2.6 02:58:59 10° NW 03:04:15 42° WSW 03:09:31 10° S
Cosmos 2237 Rocket 3.5 02:58:52 10° NNW 03:04:22 45° NE 03:09:48 10° ESE
SL-16 R/B 3.7 03:01:29 10° WNW 03:04:41 15° W 03:06:38 13° WSW
CRYOSAT 2 4.3 03:00:08 10° S 03:05:01 77° W 03:09:56 10° N
RESURS DK-1 4.1 03:01:52 10° NNW 03:05:35 36° NE 03:09:16 10° ESE
Cosmos 44 4.3 03:00:19 10° NW 03:05:40 57° NE 03:10:57 10° ESE
Meteor 1-11 Rocket 4.5 03:00:41 10° NNW 03:05:57 35° W 03:11:06 10° SSW
SL-4 R/B 3.3 03:05:08 15° WSW 03:06:18 17° SW 03:08:50 10° S
NOSS 3-3 (A) 4.3 03:01:35 13° WSW 03:06:29 58° NNW 03:13:07 10° NE
Meteor 2-11 Rocket 4.4 03:00:43 10° NNW 03:06:52 72° W 03:12:59 10° S
SL-14 R/B 4.5 03:06:16 10° SSE 03:09:57 43° E 03:13:39 10° NNE
CZ-4C R/B 3.4 03:07:42 10° W 03:12:16 36° NNW 03:18:07 10° NE
USA 290 2.7 03:10:18 15° SW 03:12:40 45° WNW 03:15:46 10° NNE
ARGOS 3.7 03:08:08 10° NNE 03:13:30 60° ESE 03:18:47 10° S
Cosmos 1408 Rocket 4.2 03:10:02 10° N 03:14:17 58° ENE 03:18:30 10° SSE
USA 267 3.3 03:08:11 10° ENE 03:14:48 79° SSE 03:21:21 10° WSW
Cosmos 1745 Rocket 4.5 03:08:45 10° N 03:14:56 65° ENE 03:21:00 10° SSE
METEOR-M 4.2 03:10:47 10° NNE 03:16:10 86° ESE 03:21:30 10° SSW
Gbstr 26 Del rocket 4.2 03:19:26 10° W 03:21:48 16° SW 03:24:10 10° S
NOSS 3-3 (C) 4.4 03:17:53 10° WSW 03:23:21 55° NNW 03:30:02 10° NE
Cosmos 2322 3.7 03:19:02 10° NW 03:24:44 69° WSW 03:30:23 10° SSE
NOSS 3 (A) 4.0 03:28:26 10° NW 03:30:37 56° SW 03:33:24 10° SE
ISS -2.1 03:29:42 10° SSW 03:32:31 25° SSE 03:35:22 10° E
IDEFIX/ARIANE 42P 4.5 03:30:31 10° NNW 03:33:31 16° NW 03:36:33 10° W
Envisat 3.9 03:31:46 10° N 03:36:17 33° WNW 03:40:47 10° SW
BREEZE-M DEB (TANK) 3.4 03:32:19 10° SW 03:37:36 30° SSE 03:40:12 10° ESE
Aureole 1 Rocket 4.4 03:37:01 10° NW 03:40:11 21° WSW 03:43:51 10° SSW
Meteor 2-4 Rocket 3.9 03:35:38 10° SW 03:40:50 50° WNW 03:46:03 10° N
Cosmos 1461 2.7 03:37:41 10° SW 03:41:26 75° SE 03:45:09 10° NE
NOSS 3-4 (A) 4.4 03:36:20 10° WNW 03:42:19 34° WSW 03:49:11 10° S
NOSS 3-4 (C) 4.4 03:36:52 10° WNW 03:42:53 34° WSW 03:49:46 10° S
AQUA 3.8 03:39:04 10° NNE 03:43:47 82° WNW 03:48:27 10° SSW
H-2A R/B 4.1 03:42:20 10° WSW 03:43:56 12° W 03:45:31 10° WNW
Meteor 1-28 Rocket 3.3 03:41:28 10° SSE 03:44:41 66° ENE 03:47:56 10° N
NOSS 0 Rocket 3.9 03:38:53 10° NW 03:45:04 71° WSW 03:51:11 10° SSE
Cosmos 1066 Rocket 4.2 03:40:57 10° SSW 03:46:15 61° WNW 03:51:35 10° N
CZ-3 R/B 4.4 03:51:22 10° WSW 04:07:06 21° SSW 04:14:28 10° SSE
